Hong Kong, Hong Kong

10:11 PM HKT on May 28, 2015 (GMT +0800)
Tung Chung | | Change Station
CLOSE
Current Station
Personal Weather Station
Location: New Territories, NEW TERRITORIES
Elevation: 10 ft
Nearby Weather Stations

Elev 10 ft 22.29 °N, 113.95 °E | Updated 3 seconds ago

Partly Cloudy
Partly Cloudy
84.2 °F
Feels Like 97 °F
N
2.9
Wind Variable Wind from North
Gusts 4.9 mph

Today
High -- | Low -- °F
--% Chance of Precip.
Yesterday
High -- | Low -- °F
Precip. -- in
5:40 AM 7:02 PM
Waxing Gibbous, 76% visible
Pressure 29.68 in
Visibility 6.2 miles
Clouds Few 1200 ft
Heat Index 97 °F
Dew Point 79 °F
Humidity 85%
Rainfall 0.00 in
Snow Depth Not available.
UV 0.0 out of 12
Pollen Not available.
Air Quality Not available.
Flu Activity Not available.
METAR VHHH 281400Z 20009KT 150V220 9999 FEW012 31/25 Q1005 NOSIG

More Conditions Fewer Conditions

Pressure 29.68 in
Visibility 6.2 miles
Clouds Few 1200 ft
Heat Index 97 °F
Dew Point 79 °F
Humidity 85%
Rainfall 0.00 in
Snow Depth Not available.
UV 0.0 out of 12
Pollen Not available.
Air Quality Not available.
Flu Activity Not available.
METAR VHHH 281400Z 20009KT 150V220 9999 FEW012 31/25 Q1005 NOSIG

More Conditions Fewer Conditions

10-Day Weather Forecast

Almanac

Astronomy

May. 28, 2015 Rise Set
Actual Time
Civil Twilight
Nautical Twilight
Astronomical Twilight
Moon
Length of Visible Light
Length of Day
Tomorrow will be .
, % of the Moon is Illuminated

Today's Extremes

Country Highs Country Lows

Community

WunderPhotos

Upload Photos

1,824,982 photos uploaded!

WunderBlogs® & News

Nearby

Air Quality

  Air Quality AQ Index Pollutant
Not available.

Snow Depth

Station Depth Elevation

Earthquake Activity

City Distance Mag. Time & Date
Minimum magnitude displayed is 2.5.

Coastal Water Temperatures

Place Temperature

Stations

Nearby Weather Stations

Station Location Temp. Windchill Dew Point Humidity Wind Precip. Elev Updated Type